QPF
0.01 0.01 0.01 0.01 0.01 0.02 0.02 0.01 0.01 0.01 0.00 0.01 0.01 0.01 0.01 0.00 0.01 0.01 0.01 0.01 0.02 0.02 0.01 0.01 0.01 0.01 0.01 0.02 0.02 0.03 0.03 0.02 0.04 0.05 0.06 0.05 0.07 0.08
0.01 0.01 0.01 0.01 0.01 0.01 0.02 0.01 0.01 0.01 0.00 0.00 0.01 0.01 0.01 0.00 0.02 0.02 0.01 0.01 0.01 0.01 0.01 0.01 0.00 0.00 0.01 0.01 0.01 0.01 0.01 0.02 0.02 0.03 0.03 0.03 0.04 0.05
0.01 0.01 0.01 0.02 0.01 0.01 0.01 0.01 0.01 0.01 0.00 0.00 0.01 0.01 0.01 0.00 0.01 0.02 0.01 0.01 0.01 0.01 0.01 0.00 0.00 0.00 0.00 0.01 0.01 0.01 0.01 0.01 0.02 0.02 0.02 0.02 0.02 0.03
0.00 0.01 0.01 0.02 0.02 0.01 0.01 0.01 0.01 0.01 0.00 0.00 0.01 0.01 0.01 0.00 0.01 0.02 0.02 0.01 0.01 0.01 0.01 0.01 0.01 0.01 0.00 0.01 0.00 0.01 0.01 0.01 0.01 0.02 0.02 0.03 0.03 0.02
0.02 0.01 0.01 0.02 0.02 0.02 0.01 0.01 0.01 0.01 0.00 0.01 0.00 0.00 0.01 0.00 0.00 0.01 0.02 0.02 0.01 0.01 0.01 0.00 0.00 0.00 0.00 0.00 0.00 0.00 0.00 0.00 0.01 0.02 0.02 0.02 0.03 0.02
0.03 0.03 0.02 0.02 0.02 0.02 0.02 0.01 0.01 0.01 0.01 0.01 0.01 0.01 0.01 0.01 0.00 0.01 0.01 0.01 0.01 0.01 0.01 0.01 0.00 0.00 0.00 0.00 0.01 0.01 0.00 0.00 0.01 0.01 0.02 0.02 0.02 0.02
0.03 0.03 0.03 0.03 0.03 0.03 0.02 0.02 0.02 0.01 0.01 0.01 0.01 0.00 0.01 0.01 0.01 0.01 0.01 0.01 0.01 0.00 0.01 0.01 0.00 0.00 0.00 0.00 0.01 0.01 0.01 0.01 0.01 0.01 0.02 0.02 0.02 0.02
0.03 0.02 0.03 0.04 0.04 0.03 0.03 0.03 0.02 0.02 0.02 0.02 0.02 0.01 0.01 0.01 0.01 0.02 0.01 0.01 0.01 0.00 0.01 0.01 0.01 0.00 0.00 0.01 0.01 0.01 0.01 0.01 0.01 0.01 0.01 0.02 0.03 0.03
0.02 0.02 0.03 0.04 0.03 0.02 0.03 0.03 0.03 0.02 0.02 0.02 0.02 0.02 0.02 0.02 0.02 0.02 0.02 0.01 0.01 0.01 0.01 0.01 0.01 0.01 0.01 0.01 0.01 0.01 0.01 0.01 0.01 0.01 0.02 0.02 0.03 0.04
0.01 0.02 0.03 0.04 0.02 0.01 0.01 0.02 0.02 0.02 0.02 0.02 0.02 0.02 0.02 0.01 0.01 0.01 0.01 0.01 0.01 0.01 0.01 0.01 0.01 0.01 0.01 0.01 0.01 0.01 0.01 0.01 0.02 0.03 0.05 0.05 0.03 0.03
0.01 0.01 0.02 0.02 0.02 0.01 0.01 0.01 0.01 0.02 0.02 0.02 0.02 0.01 0.01 0.01 0.01 0.01 0.01 0.01 0.01 0.01 0.01 0.01 0.02 0.01 0.01 0.01 0.01 0.01 0.01 0.01 0.02 0.03 0.04 0.08 0.08 0.05
0.01 0.01 0.01 0.01 0.01 0.01 0.00 0.00 0.00 0.01 0.02 0.02 0.01 0.01 0.01 0.01 0.01 0.01 0.00 0.00 0.00 0.00 0.00 0.01 0.02 0.02 0.02 0.01 0.01 0.01 0.01 0.02 0.02 0.03 0.04 0.05 0.07 0.08
0.01 0.00 0.00 0.00 0.01 0.01 0.00 0.00 0.00 0.01 0.01 0.01 0.01 0.01 0.01 0.01 0.01 0.00 0.00 0.00 0.00 0.00 0.00 0.01 0.01 0.02 0.03 0.02 0.02 0.01 0.01 0.01 0.02 0.03 0.03 0.03 0.04 0.05
0.01 0.00 0.00 0.01 0.01 0.01 0.00 0.00 0.00 0.00 0.00 0.00 0.01 0.01 0.01 0.01 0.01 0.00 0.00 0.00 0.00 0.00 0.00 0.01 0.01 0.01 0.02 0.02 0.03 0.02 0.01 0.01 0.02 0.03 0.03 0.04 0.04 0.04
0.01 0.01 0.01 0.01 0.01 0.00 0.00 0.00 0.00 0.00 0.00 0.00 0.00 0.01 0.01 0.01 0.01 0.01 0.01 0.01 0.01 0.00 0.00 0.00 0.01 0.01 0.01 0.02 0.02 0.03 0.03 0.02 0.01 0.02 0.03 0.04 0.03 0.03
0.01 0.01 0.01 0.00 0.00 0.00 0.00 0.00 0.00 0.00 0.01 0.01 0.00 0.01 0.01 0.01 0.02 0.02 0.02 0.01 0.01 0.01 0.01 0.01 0.01 0.02 0.02 0.02 0.02 0.02 0.03 0.03 0.02 0.02 0.02 0.03 0.03 0.02
0.01 0.01 0.01 0.00 0.00 0.00 0.00 0.00 0.00 0.01 0.01 0.01 0.01 0.01 0.01 0.01 0.02 0.02 0.01 0.02 0.02 0.02 0.02 0.02 0.03 0.03 0.03 0.03 0.02 0.03 0.03 0.02 0.02 0.02 0.02 0.03 0.03 0.03
0.02 0.01 0.01 0.01 0.01 0.00 0.00 0.00 0.01 0.01 0.01 0.01 0.02 0.01 0.01 0.02 0.02 0.02 0.03 0.03 0.03 0.03 0.02 0.02 0.03 0.05 0.06 0.06 0.05 0.03 0.04 0.03 0.02 0.02 0.02 0.02 0.03 0.03
0.02 0.01 0.01 0.01 0.01 0.00 0.00 0.00 0.01 0.02 0.01 0.01 0.02 0.01 0.02 0.02 0.03 0.02 0.03 0.04 0.04 0.04 0.04 0.03 0.03 0.04 0.05 0.07 0.06 0.05 0.04 0.03 0.02 0.03 0.02 0.02 0.02 0.02
0.03 0.02 0.02 0.01 0.01 0.01 0.01 0.01 0.01 0.02 0.02 0.01 0.01 0.01 0.01 0.02 0.02 0.02 0.03 0.03 0.04 0.04 0.05 0.05 0.05 0.05 0.04 0.04 0.04 0.05 0.05 0.03 0.02 0.03 0.03 0.03 0.03 0.03
0.03 0.03 0.03 0.03 0.02 0.02 0.01 0.01 0.01 0.02 0.02 0.02 0.02 0.02 0.02 0.02 0.02 0.02 0.03 0.04 0.05 0.05 0.05 0.06 0.06 0.06 0.06 0.04 0.04 0.05 0.06 0.06 0.03 0.03 0.03 0.03 0.03 0.03
0.03 0.03 0.03 0.03 0.03 0.02 0.02 0.01 0.01 0.02 0.02 0.02 0.02 0.02 0.01 0.02 0.02 0.02 0.03 0.04 0.05 0.05 0.05 0.06 0.06 0.07 0.07 0.06 0.05 0.05 0.06 0.06 0.06 0.05 0.04 0.03 0.03 0.02
0.02 0.02 0.02 0.02 0.02 0.02 0.02 0.02 0.02 0.03 0.04 0.03 0.03 0.02 0.02 0.02 0.02 0.02 0.03 0.04 0.05 0.05 0.05 0.06 0.07 0.07 0.08 0.07 0.06 0.06 0.05 0.05 0.05 0.05 0.05 0.04 0.03 0.02
MSLP
1016.50 1016.68 1016.89 1017.10 1017.28 1017.39 1017.44 1017.41 1017.33 1017.23 1017.13 1017.06 1017.05 1017.08 1017.13 1017.17 1017.18 1017.11 1016.94 1016.67 1016.32 1015.90 1015.44 1014.97 1014.50 1014.01 1013.48 1012.88 1012.17 1011.31 1010.29 1009.13 1007.86 1006.56 1005.30 1004.19 1003.30 1002.70
1015.80 1015.98 1016.19 1016.40 1016.60 1016.75 1016.83 1016.87 1016.86 1016.83 1016.81 1016.83 1016.88 1016.96 1017.06 1017.14 1017.17 1017.12 1016.98 1016.75 1016.43 1016.05 1015.64 1015.24 1014.83 1014.43 1014.01 1013.55 1013.00 1012.33 1011.53 1010.61 1009.59 1008.52 1007.48 1006.53 1005.75 1005.19
1015.13 1015.29 1015.48 1015.70 1015.91 1016.08 1016.22 1016.32 1016.39 1016.46 1016.53 1016.62 1016.75 1016.89 1017.03 1017.14 1017.20 1017.17 1017.06 1016.85 1016.56 1016.23 1015.87 1015.52 1015.17 1014.85 1014.52 1014.16 1013.75 1013.24 1012.64 1011.94 1011.15 1010.32 1009.49 1008.72 1008.08 1007.60
1014.49 1014.63 1014.81 1015.02 1015.23 1015.43 1015.62 1015.78 1015.93 1016.08 1016.24 1016.41 1016.60 1016.80 1016.99 1017.13 1017.21 1017.21 1017.12 1016.95 1016.70 1016.41 1016.11 1015.80 1015.51 1015.24 1014.98 1014.71 1014.39 1014.02 1013.57 1013.05 1012.46 1011.84 1011.22 1010.65 1010.16 1009.80
1013.88 1014.00 1014.16 1014.36 1014.57 1014.79 1015.00 1015.22 1015.43 1015.65 1015.88 1016.12 1016.37 1016.62 1016.84 1017.01 1017.13 1017.16 1017.11 1016.99 1016.80 1016.56 1016.32 1016.07 1015.83 1015.61 1015.39 1015.17 1014.92 1014.64 1014.30 1013.92 1013.50 1013.06 1012.63 1012.24 1011.91 1011.67
1013.27 1013.37 1013.51 1013.69 1013.90 1014.12 1014.36 1014.60 1014.85 1015.12 1015.39 1015.68 1015.97 1016.25 1016.50 1016.71 1016.86 1016.94 1016.95 1016.89 1016.78 1016.62 1016.45 1016.26 1016.08 1015.90 1015.72 1015.53 1015.33 1015.10 1014.84 1014.57 1014.28 1013.99 1013.72 1013.48 1013.30 1013.18
1012.61 1012.70 1012.83 1013.00 1013.19 1013.40 1013.64 1013.89 1014.16 1014.44 1014.74 1015.04 1015.35 1015.64 1015.92 1016.16 1016.35 1016.49 1016.57 1016.60 1016.59 1016.53 1016.44 1016.34 1016.23 1016.10 1015.95 1015.79 1015.62 1015.43 1015.23 1015.03 1014.83 1014.66 1014.52 1014.42 1014.36 1014.35
1011.85 1011.96 1012.08 1012.24 1012.42 1012.62 1012.85 1013.09 1013.34 1013.62 1013.90 1014.20 1014.50 1014.79 1015.08 1015.35 1015.59 1015.79 1015.96 1016.09 1016.19 1016.24 1016.27 1016.26 1016.23 1016.16 1016.06 1015.93 1015.79 1015.63 1015.48 1015.33 1015.22 1015.14 1015.10 1015.11 1015.16 1015.24
1010.98 1011.11 1011.25 1011.41 1011.59 1011.78 1011.98 1012.20 1012.43 1012.68 1012.93 1013.20 1013.47 1013.75 1014.04 1014.33 1014.61 1014.88 1015.14 1015.38 1015.59 1015.76 1015.90 1016.00 1016.05 1016.05 1016.01 1015.93 1015.83 1015.72 1015.61 1015.52 1015.47 1015.47 1015.52 1015.61 1015.74 1015.88
1009.99 1010.17 1010.34 1010.52 1010.71 1010.90 1011.09 1011.28 1011.48 1011.68 1011.90 1012.12 1012.36 1012.62 1012.90 1013.20 1013.51 1013.84 1014.17 1014.50 1014.82 1015.10 1015.35 1015.55 1015.69 1015.77 1015.80 1015.78 1015.73 1015.67 1015.62 1015.60 1015.61 1015.68 1015.80 1015.96 1016.15 1016.35
1008.91 1009.15 1009.38 1009.60 1009.81 1010.01 1010.20 1010.38 1010.55 1010.72 1010.89 1011.08 1011.28 1011.51 1011.77 1012.07 1012.40 1012.76 1013.15 1013.55 1013.95 1014.32 1014.65 1014.93 1015.15 1015.31 1015.40 1015.45 1015.46 1015.47 1015.49 1015.54 1015.63 1015.77 1015.95 1016.17 1016.40 1016.64
1007.76 1008.08 1008.39 1008.66 1008.92 1009.15 1009.35 1009.53 1009.70 1009.84 1009.99 1010.14 1010.32 1010.52 1010.76 1011.05 1011.38 1011.76 1012.17 1012.61 1013.04 1013.47 1013.85 1014.19 1014.47 1014.68 1014.84 1014.94 1015.03 1015.10 1015.19 1015.32 1015.48 1015.68 1015.92 1016.19 1016.46 1016.72
1006.59 1007.00 1007.38 1007.72 1008.03 1008.31 1008.54 1008.75 1008.92 1009.07 1009.21 1009.35 1009.51 1009.69 1009.92 1010.19 1010.51 1010.88 1011.29 1011.73 1012.17 1012.60 1013.01 1013.36 1013.67 1013.91 1014.11 1014.27 1014.41 1014.55 1014.71 1014.90 1015.12 1015.38 1015.67 1015.98 1016.28 1016.56
1005.39 1005.89 1006.35 1006.77 1007.15 1007.47 1007.75 1007.99 1008.20 1008.37 1008.53 1008.68 1008.84 1009.03 1009.24 1009.50 1009.81 1010.16 1010.54 1010.95 1011.36 1011.77 1012.15 1012.49 1012.79 1013.05 1013.26 1013.45 1013.63 1013.81 1014.02 1014.26 1014.53 1014.83 1015.15 1015.48 1015.79 1016.08
1004.20 1004.78 1005.31 1005.80 1006.24 1006.62 1006.95 1007.24 1007.49 1007.70 1007.90 1008.08 1008.27 1008.47 1008.69 1008.94 1009.23 1009.54 1009.89 1010.25 1010.61 1010.97 1011.30 1011.60 1011.87 1012.11 1012.32 1012.51 1012.71 1012.91 1013.14 1013.40 1013.69 1014.01 1014.34 1014.67 1014.99 1015.28
1003.01 1003.67 1004.27 1004.81 1005.30 1005.73 1006.11 1006.45 1006.75 1007.02 1007.26 1007.49 1007.72 1007.94 1008.18 1008.43 1008.70 1008.98 1009.28 1009.59 1009.89 1010.18 1010.46 1010.71 1010.93 1011.13 1011.32 1011.50 1011.68 1011.88 1012.11 1012.37 1012.65 1012.95 1013.27 1013.58 1013.88 1014.16
1001.89 1002.60 1003.25 1003.83 1004.35 1004.81 1005.23 1005.61 1005.96 1006.28 1006.58 1006.86 1007.12 1007.38 1007.64 1007.89 1008.15 1008.40 1008.66 1008.91 1009.16 1009.39 1009.60 1009.79 1009.97 1010.13 1010.28 1010.43 1010.60 1010.77 1010.97 1011.20 1011.45 1011.72 1011.99 1012.27 1012.54 1012.80
1000.90 1001.65 1002.33 1002.93 1003.46 1003.94 1004.38 1004.78 1005.16 1005.52 1005.85 1006.17 1006.47 1006.76 1007.02 1007.28 1007.51 1007.74 1007.96 1008.16 1008.35 1008.53 1008.69 1008.84 1008.98 1009.10 1009.22 1009.34 1009.47 1009.62 1009.78 1009.96 1010.16 1010.38 1010.60 1010.84 1011.07 1011.30
1000.16 1000.93 1001.61 1002.20 1002.73 1003.20 1003.64 1004.05 1004.44 1004.81 1005.16 1005.49 1005.80 1006.09 1006.35 1006.58 1006.79 1006.98 1007.16 1007.32 1007.46 1007.59 1007.72 1007.83 1007.93 1008.03 1008.12 1008.22 1008.32 1008.43 1008.56 1008.69 1008.84 1009.01 1009.18 1009.36 1009.56 1009.76
999.76 1000.53 1001.20 1001.77 1002.28 1002.73 1003.14 1003.53 1003.90 1004.25 1004.59 1004.90 1005.18 1005.44 1005.66 1005.85 1006.01 1006.15 1006.27 1006.37 1006.47 1006.56 1006.65 1006.73 1006.82 1006.90 1006.98 1007.05 1007.14 1007.22 1007.31 1007.41 1007.52 1007.64 1007.77 1007.92 1008.08 1008.26
999.80 1000.55 1001.19 1001.74 1002.20 1002.61 1002.99 1003.33 1003.66 1003.96 1004.24 1004.50 1004.72 1004.90 1005.04 1005.15 1005.24 1005.30 1005.34 1005.38 1005.42 1005.46 1005.51 1005.57 1005.63 1005.70 1005.76 1005.83 1005.90 1005.96 1006.03 1006.11 1006.19 1006.28 1006.39 1006.51 1006.66 1006.84
1000.32 1001.03 1001.63 1002.13 1002.56 1002.92 1003.24 1003.52 1003.78 1004.01 1004.20 1004.36 1004.48 1004.56 1004.59 1004.59 1004.56 1004.51 1004.46 1004.41 1004.37 1004.36 1004.36 1004.37 1004.41 1004.45 1004.50 1004.55 1004.60 1004.65 1004.71 1004.77 1004.84 1004.92 1005.02 1005.15 1005.30 1005.49
1001.29 1001.96 1002.50 1002.95 1003.32 1003.63 1003.88 1004.10 1004.28 1004.41 1004.50 1004.54 1004.53 1004.47 1004.36 1004.22 1004.05 1003.88 1003.71 1003.55 1003.43 1003.33 1003.26 1003.22 1003.21 1003.21 1003.23 1003.25 1003.27 1003.30 1003.34 1003.39 1003.45 1003.54 1003.65 1003.79 1003.96 1004.18
Thickness
5663 5662 5660 5659 5658 5657 5655 5652 5646 5641 5641 5643 5644 5647 5647 5647 5647 5647 5646 5645 5645 5644 5644 5644 5644 5643 5643 5643 5643 5643 5643 5643 5642 5642 5642 5642 5642 5641
5659 5658 5657 5656 5654 5653 5652 5649 5647 5643 5639 5640 5641 5642 5643 5643 5643 5642 5642 5641 5640 5640 5639 5639 5639 5639 5639 5639 5639 5638 5638 5637 5637 5637 5637 5636 5636 5636
5655 5654 5653 5652 5650 5649 5647 5646 5643 5641 5637 5636 5637 5638 5638 5638 5638 5637 5637 5636 5636 5636 5635 5635 5635 5634 5634 5634 5634 5633 5633 5633 5632 5632 5632 5631 5631 5630
5651 5650 5648 5647 5645 5644 5642 5641 5640 5639 5635 5632 5632 5632 5632 5633 5633 5632 5632 5632 5631 5631 5631 5630 5630 5630 5630 5629 5629 5629 5628 5628 5627 5627 5627 5626 5626 5625
5647 5645 5644 5642 5640 5639 5638 5637 5636 5636 5633 5629 5627 5627 5627 5628 5627 5626 5627 5626 5626 5626 5626 5625 5625 5625 5625 5625 5625 5624 5624 5624 5623 5623 5622 5621 5621 5621
5643 5642 5640 5639 5637 5636 5634 5633 5631 5629 5627 5625 5623 5622 5621 5621 5620 5619 5619 5620 5620 5621 5621 5620 5621 5620 5620 5620 5620 5620 5619 5619 5618 5618 5617 5617 5616 5616
5638 5637 5636 5636 5635 5633 5632 5629 5627 5623 5621 5618 5617 5616 5615 5614 5614 5614 5613 5613 5614 5615 5614 5615 5615 5615 5615 5615 5615 5615 5614 5614 5613 5612 5612 5611 5611 5610
5633 5632 5631 5631 5630 5629 5628 5627 5624 5620 5617 5614 5612 5611 5611 5610 5610 5610 5607 5606 5606 5609 5608 5608 5609 5609 5610 5610 5610 5609 5609 5608 5608 5607 5606 5606 5605 5605
5628 5627 5627 5626 5624 5622 5621 5621 5619 5618 5617 5613 5610 5609 5608 5608 5606 5604 5603 5602 5602 5604 5602 5602 5603 5603 5604 5604 5604 5604 5603 5603 5602 5602 5601 5600 5599 5598
5625 5623 5621 5619 5619 5617 5615 5613 5612 5611 5611 5610 5608 5607 5606 5605 5603 5603 5601 5598 5598 5598 5598 5596 5596 5596 5598 5599 5599 5598 5598 5597 5596 5595 5595 5594 5593 5592
5620 5619 5617 5615 5614 5613 5610 5607 5605 5605 5605 5604 5604 5603 5601 5600 5598 5596 5593 5591 5590 5591 5591 5590 5590 5589 5590 5591 5592 5592 5591 5591 5590 5589 5588 5588 5586 5585
5613 5612 5612 5611 5610 5608 5604 5602 5599 5599 5598 5598 5597 5596 5595 5594 5593 5592 5590 5587 5585 5584 5585 5583 5583 5581 5581 5584 5585 5585 5584 5584 5583 5582 5581 5580 5579 5577
5608 5606 5605 5605 5604 5602 5600 5598 5596 5594 5592 5591 5590 5589 5588 5587 5587 5587 5586 5585 5582 5581 5581 5579 5577 5575 5575 5575 5576 5577 5576 5576 5575 5574 5573 5572 5570 5569
5603 5601 5600 5599 5597 5596 5594 5592 5591 5588 5585 5583 5582 5581 5580 5580 5581 5581 5580 5580 5579 5579 5578 5575 5573 5571 5568 5567 5567 5568 5568 5568 5567 5566 5565 5563 5562 5561
5598 5597 5594 5592 5590 5589 5588 5586 5584 5581 5578 5576 5575 5575 5575 5575 5574 5573 5572 5572 5572 5571 5571 5570 5568 5566 5564 5562 5561 5560 5559 5559 5559 5558 5556 5555 5553 5552
5590 5589 5587 5585 5582 5581 5579 5578 5576 5574 5572 5571 5570 5569 5568 5567 5566 5565 5563 5563 5561 5562 5562 5562 5561 5560 5557 5556 5554 5553 5552 5551 5550 5549 5548 5547 5545 5544
5581 5578 5576 5573 5571 5570 5569 5569 5568 5567 5565 5564 5563 5562 5561 5560 5559 5558 5556 5555 5553 5553 5552 5552 5552 5551 5550 5549 5546 5545 5544 5543 5542 5540 5538 5537 5537 5536
5574 5570 5568 5567 5565 5564 5563 5562 5561 5560 5560 5558 5557 5556 5555 5554 5552 5551 5549 5548 5546 5545 5544 5543 5542 5540 5539 5539 5539 5537 5536 5534 5533 5531 5529 5527 5528 5528
5566 5564 5563 5561 5560 5559 5558 5557 5556 5555 5554 5553 5552 5550 5549 5547 5545 5544 5542 5541 5540 5538 5537 5535 5533 5531 5529 5529 5530 5529 5527 5526 5524 5522 5520 5519 5519 5520
5558 5558 5556 5555 5554 5553 5552 5551 5550 5548 5547 5546 5545 5544 5542 5540 5539 5537 5535 5534 5533 5531 5529 5527 5525 5524 5523 5522 5521 5520 5519 5518 5516 5514 5512 5510 5510 5510
5550 5549 5549 5548 5548 5547 5546 5545 5544 5543 5542 5540 5539 5538 5536 5534 5532 5531 5529 5528 5526 5524 5522 5521 5520 5518 5516 5512 5510 5510 5509 5508 5508 5506 5504 5501 5499 5498
5541 5541 5541 5540 5540 5539 5538 5537 5537 5536 5535 5534 5533 5531 5530 5528 5526 5525 5523 5520 5519 5517 5516 5513 5511 5508 5505 5503 5502 5501 5499 5498 5497 5496 5494 5494 5491 5490
5533 5533 5532 5532 5531 5531 5530 5530 5530 5529 5529 5528 5526 5524 5523 5521 5520 5518 5516 5514 5511 5509 5506 5503 5500 5498 5496 5495 5493 5492 5490 5488 5486 5485 5483 5483 5482 5482